CAPE
15 17 21 23 31 12 0 0 0 0 0 0 0 0 0 0 0 0 0 0 1 0 0 0 0 0 0 0 0 0 0 0 0 0 14 10 0 0 0 0 0 0 0 0 0 1 3 0 0 0 0 0 0 0
0 0 0 0 0 1 0 0 0 0 0 0 0 0 0 0 0 0 0 0 0 0 0 0 0 0 0 0 0 0 0 0 0 3 20 0 76 0 0 0 0 0 0 3 0 0 0 0 0 0 0 0 0 0
2 1 1 0 0 0 0 0 0 0 0 0 0 0 0 0 0 0 0 0 0 0 0 0 0 0 0 0 0 0 0 0 0 0 42 34 1 0 0 0 0 0 0 0 0 0 0 0 0 0 0 0 0 0
5 6 4 4 2 1 1 1 0 0 0 1 0 0 0 0 0 0 0 0 0 0 0 1 0 0 0 0 0 0 0 0 0 0 0 0 1 0 5 0 0 0 0 0 0 0 0 0 0 0 0 0 0 0
12 10 15 21 7 14 8 4 2 3 6 6 2 0 0 1 1 0 0 0 0 0 2 3 0 0 0 0 0 0 0 0 0 0 1 0 0 0 0 0 0 0 0 0 11 0 1 0 0 0 0 0 0 0
8 18 10 23 27 24 27 13 10 7 2 0 0 0 0 0 0 0 6 0 0 0 0 5 0 0 0 0 0 0 0 0 0 0 12 0 0 1 21 0 0 0 0 0 0 0 0 0 0 0 0 0 0 0
19 36 14 21 35 30 27 23 20 14 0 0 0 0 0 0 0 0 0 0 0 0 0 8 6 0 0 0 0 0 0 0 0 1 14 0 0 0 23 5 0 0 0 0 0 0 0 0 0 0 0 0 0 0
41 43 19 15 28 30 28 25 11 15 5 0 0 0 0 0 0 0 0 0 0 0 0 7 8 1 0 17 0 0 5 0 0 7 0 1 0 1 6 0 0 0 0 0 0 0 0 0 0 0 0 0 0 0
62 35 27 22 9 10 10 14 14 0 0 0 0 0 0 0 0 0 0 0 0 0 1 0 6 9 0 7 3 1 9 9 0 4 0 0 18 0 0 0 0 0 0 0 0 0 0 0 0 0 0 1 1 0
32 15 2 21 45 39 20 11 4 0 0 0 0 0 0 0 0 0 0 0 0 0 0 13 0 2 6 12 20 0 41 5 0 0 0 0 0 0 0 0 0 0 0 0 0 0 0 0 0 0 3 2 0 0
8 0 1 3 4 16 25 19 11 2 0 26 31 17 0 0 0 0 7 0 11 4 4 14 0 4 6 23 14 0 10 0 0 0 0 2 0 0 0 0 0 0 0 0 0 0 0 0 4 4 4 0 0 0
1 0 0 0 1 2 3 0 0 3 3 7 0 0 0 0 6 0 0 0 0 0 1 28 24 2 6 3 1 4 0 0 3 0 3 0 9 0 0 0 0 0 0 1 0 0 0 2 6 1 0 0 0 1
0 0 0 0 0 0 0 0 0 0 0 0 0 0 0 0 2 0 0 0 0 2 9 9 10 5 8 0 3 1 0 2 0 16 0 24 1 0 0 0 0 2 1 0 0 0 0 0 0 0 0 0 1 1
0 0 0 0 0 0 0 0 0 0 0 2 0 0 0 0 1 6 0 0 1 5 5 0 11 10 7 4 3 0 2 0 2 1 6 4 6 1 0 2 2 0 0 1 0 0 0 0 1 1 0 0 0 0
0 0 0 0 0 0 0 0 0 0 0 0 0 0 18 4 0 0 2 7 14 7 19 20 11 0 2 0 0 0 0 2 0 23 35 5 4 3 1 1 1 1 0 2 1 0 0 0 1 1 0 1 0 0
0 0 0 0 0 0 0 0 0 0 0 0 14 19 26 3 3 19 26 18 21 15 10 0 2 0 1 0 0 0 0 0 10 7 4 3 1 0 0 1 0 1 2 1 1 0 0 0 0 3 3 1 0 0
0 0 0 0 0 0 0 0 0 0 0 2 35 29 32 36 25 24 20 17 28 23 35 4 0 1 5 0 0 14 5 6 8 8 7 6 1 1 0 0 0 2 2 2 1 0 0 0 1 2 2 1 2 1
0 0 0 0 0 0 0 0 0 1 6 32 10 29 15 20 7 0 23 21 15 3 0 0 0 0 0 0 24 5 3 3 12 3 1 2 1 0 0 1 0 2 1 2 2 1 0 1 0 1 1 0 1 1
0 0 0 0 0 0 0 0 2 9 12 30 12 2 25 37 9 13 14 19 20 4 0 1 0 0 22 20 4 0 10 12 8 11 0 0 0 0 1 1 0 0 0 0 1 2 1 1 1 0 0 0 0 1
0 0 0 0 0 0 0 0 0 5 7 4 25 33 27 28 21 28 9 5 1 0 0 0 9 40 47 35 29 47 40 47 30 43 49 17 0 0 0 1 2 2 1 0 0 0 5 3 1 1 0 0 1 0
0 0 0 0 0 0 0 0 1 2 8 5 5 2 4 11 11 7 1 0 0 0 0 0 8 47 12 44 35 41 37 27 33 26 27 41 47 28 23 13 0 0 0 1 2 2 0 5 2 0 8 0 1 4
0 0 0 0 0 0 0 0 4 1 4 4 4 2 6 5 0 0 0 0 0 0 0 0 2 2 12 9 11 2 4 2 19 9 3 10 22 39 44 55 34 4 2 3 0 2 4 0 0 3 2 0 0 3
0 0 0 0 0 0 0 0 0 0 0 2 0 0 0 0 0 0 0 0 0 0 0 0 0 0 0 0 0 0 0 0 0 0 11 36 45 57 60 45 68 68 6 0 1 1 2 0 0 1 0 0 0 5
0 0 0 0 0 0 0 0 0 0 0 0 0 0 0 0 0 0 0 0 13 1 0 0 0 1 0 1 5 15 47 23 18 18 39 48 48 52 53 46 49 67 64 1 0 0 0 0 0 0 1 0 0 1
0 0 0 0 0 0 0 0 0 0 0 0 0 0 0 0 0 0 0 0 3 4 6 6 9 7 4 10 37 34 19 6 12 6 0 7 32 42 41 46 52 66 57 41 0 0 0 0 0 1 1 2 0 0
0 0 0 0 0 0 0 0 0 0 0 0 0 0 0 0 0 0 0 3 25 9 27 11 11 15 20 17 27 25 13 8 22 22 27 26 25 23 27 40 60 52 29 50 0 0 0 0 0 1 1 1 0 0
0 0 0 0 0 0 0 0 0 0 0 0 0 0 0 0 0 0 3 31 19 25 27 19 16 13 10 12 5 0 0 5 23 16 18 29 35 15 11 10 1 6 4 0 0 0 0 0 0 0 2 1 1 0
0 0 0 0 0 0 0 0 0 0 0 0 0 0 0 0 0 0 10 23 18 7 12 20 3 2 2 0 0 0 2 6 8 28 28 51 0 0 0 2 0 0 0 0 0 0 0 0 0 0 0 1 1 0
0 0 0 0 0 0 0 0 0 0 0 0 0 0 0 0 10 16 4 0 0 0 3 11 36 0 0 0 0 0 0 0 0 0 11 23 11 10 2 0 7 6 10 4 1 0 0 0 0 0 0 0 0 0
0 0 0 0 0 0 0 0 10 0 0 0 1 0 0 0 0 0 3 2 20 62 1 1 56 0 1 5 7 6 31 16 16 15 2 3 2 1 0 4 21 12 8 3 5 3 1 0 0 0 0 0 0 0
0 0 0 0 0 18 14 5 2 0 0 2 0 0 0 3 0 0 0 8 14 10 0 3 19 33 9 13 25 16 11 0 0 0 1 0 9 19 5 6 25 7 4 2 2 4 2 2 2 2 1 0 0 0
7 2 0 0 8 3 0 5 6 3 5 5 8 7 12 7 4 4 1 28 38 2 9 22 10 18 1 1 1 2 0 4 2 1 0 2 3 4 16 8 10 5 3 6 9 8 7 6 7 10 5 4 2 1
9 13 7 7 6 6 5 5 1 1 4 3 4 5 6 8 1 12 2 4 4 3 3 1 1 1 0 0 0 2 0 2 0 0 0 1 1 0 0 21 3 7 16 20 12 1 7 6 9 11 7 6 10 10
CIN
-16 -20 -30 -45 -51 -60 -3 0 0 0 0 0 0 0 0 0 0 0 0 0 -17 0 0 0 0 0 0 0 0 0 0 0 0 0 -7 -15 -2 0 0 0 0 0 0 0 0 -2 -2 0 0 0 0 0 0 0
0 0 0 0 0 -1 0 0 0 0 0 0 0 0 0 0 0 0 0 0 0 0 0 0 0 0 0 0 0 0 0 0 0 -9 -55 0 -4 0 0 0 0 0 0 -2 0 0 0 0 0 0 0 0 0 0
0 0 0 0 0 0 0 0 0 0 0 0 0 0 0 0 0 0 0 0 0 0 0 0 0 0 0 0 0 0 0 0 0 0 -106 -11 -1 0 0 0 0 0 0 0 0 0 0 0 0 0 0 0 0 0
0 0 0 0 0 0 0 0 0 0 0 0 0 -1 0 0 0 0 -38 0 0 0 0 0 0 0 0 0 0 0 0 0 0 0 0 0 0 0 0 0 0 0 0 0 0 0 0 0 0 0 0 0 0 0
0 0 0 0 -1 0 0 0 0 0 0 0 0 0 0 -95 -31 0 0 0 0 0 0 0 0 0 0 0 0 0 0 0 0 0 0 0 0 0 0 0 0 0 0 0 -2 0 -5 0 0 0 0 0 0 0
-1 0 0 0 0 0 0 0 0 0 0 0 0 0 0 0 0 0 -96 0 0 0 0 0 0 0 0 0 0 0 0 0 0 0 0 0 0 -2 -4 0 0 0 0 0 0 0 0 0 0 0 0 0 0 0
0 0 0 0 0 0 0 -1 -1 -1 0 0 0 0 0 0 0 0 0 0 0 0 0 -1 0 0 0 0 0 0 0 0 0 0 0 0 0 0 0 0 0 0 0 0 0 0 0 0 0 0 0 0 0 0
0 0 0 0 0 0 0 -1 -6 -2 -17 0 0 0 0 0 0 0 0 0 0 0 0 -1 0 0 0 0 0 0 0 0 0 0 0 0 0 0 0 0 0 0 0 0 0 0 0 0 0 0 0 0 0 -1
-1 0 0 0 0 0 -4 0 -6 -9 0 0 0 0 0 0 0 0 0 0 0 0 0 0 0 0 0 -1 0 -5 -1 0 0 0 0 0 0 0 0 0 0 0 0 0 0 0 0 0 0 0 0 0 -1 0
-5 -4 -3 0 0 0 0 -3 -12 -1 0 0 0 0 0 0 0 0 0 0 0 0 0 -2 0 0 0 -1 0 0 0 0 0 0 0 0 0 0 0 0 0 0 0 0 0 0 0 0 0 0 -1 0 0 0
-14 -7 -12 -4 -2 -1 -1 -2 -8 -17 0 -5 0 -2 0 0 0 0 -7 0 -15 -11 -11 0 0 0 0 0 0 0 0 0 0 0 0 0 0 0 0 0 0 0 0 0 0 0 0 0 0 0 -4 0 0 0
-12 -6 -21 -2 -36 -12 -18 0 0 -24 -7 -1 0 0 0 0 -9 0 0 0 0 0 0 0 0 0 -1 0 0 -1 0 0 0 0 0 0 0 0 0 0 0 0 0 0 0 0 0 -4 -1 -3 0 0 0 0
0 0 0 0 0 0 0 0 0 0 0 0 0 0 0 0 -8 -1 0 0 0 0 0 0 0 0 -1 0 0 0 0 0 0 0 0 -1 0 0 0 0 0 0 0 0 0 0 0 0 0 0 0 0 0 0
0 0 0 0 0 0 0 0 0 0 0 -18 0 0 0 0 0 -1 0 0 0 0 0 0 0 0 0 0 0 0 -1 0 0 0 0 -1 0 0 0 0 0 0 0 0 0 0 0 0 0 0 0 0 0 0
0 0 0 0 0 0 0 0 0 0 0 0 0 0 0 0 0 -1 -1 -1 -2 -2 0 0 0 0 0 0 0 0 0 0 0 -1 0 0 0 0 0 0 0 0 0 0 0 0 0 0 0 0 -1 0 0 0
0 0 0 0 0 0 0 0 0 0 0 0 0 0 0 -3 -1 -7 -1 -2 0 0 -1 0 0 0 0 0 0 0 0 -1 0 0 0 0 0 0 0 0 0 0 0 0 0 0 0 0 0 0 0 0 0 0
0 0 0 0 0 0 0 0 0 0 0 0 0 0 0 0 -1 -2 -2 -7 -6 -6 -3 0 0 0 0 0 0 -6 -1 0 0 0 0 0 0 0 0 -1 0 -1 0 0 0 0 0 0 0 0 0 0 0 0
0 0 0 0 0 0 0 0 0 -1 0 0 -3 0 -2 -1 -2 -2 -8 -9 -3 0 0 0 0 0 0 0 0 0 0 -1 0 -1 0 0 0 0 0 0 0 0 0 0 0 0 0 0 0 0 0 0 0 0
0 0 0 0 0 0 0 0 0 0 0 0 -3 -22 -1 0 -6 -5 -7 -4 -1 0 0 0 0 0 -1 0 -5 0 -1 -1 -1 0 0 0 0 0 0 0 0 0 0 0 0 0 0 0 0 0 0 0 0 0
0 0 0 0 0 0 0 0 0 0 0 -1 0 0 0 0 0 -1 0 0 0 0 0 0 -1 0 0 0 0 0 0 0 0 -1 -1 -10 -16 0 0 0 0 0 0 0 -1 -1 0 0 0 -1 -1 0 0 0
0 0 0 0 0 0 0 0 0 0 0 0 0 0 0 0 0 0 0 0 0 0 0 0 0 0 -5 0 0 0 0 0 0 0 0 0 -1 0 0 0 0 0 0 0 0 0 0 -1 -1 0 -13 0 -2 -1
0 0 0 0 0 0 0 0 0 0 0 0 0 0 0 0 0 0 0 0 0 0 0 0 0 0 0 0 -1 0 -1 0 0 -2 0 0 -2 0 0 0 0 0 0 0 0 0 0 0 -1 -9 -23 0 0 -3
0 0 0 0 0 0 0 0 0 0 0 0 0 0 0 0 0 0 0 0 0 0 0 0 0 0 0 0 0 0 0 0 0 0 0 0 0 0 -1 -1 -1 -3 -3 0 -4 -1 0 0 0 -24 0 0 0 -7
0 0 0 0 0 0 0 0 0 0 0 0 0 0 0 0 0 0 0 0 0 0 0 0 0 0 0 -1 0 0 0 0 0 0 0 0 0 0 0 -1 -3 -2 -5 -3 0 0 0 0 0 0 0 0 0 -1
0 0 0 0 0 0 0 0 0 0 0 0 0 0 0 0 0 0 0 0 0 0 -1 0 0 0 0 0 0 0 0 -1 -2 0 0 0 0 0 0 0 -1 -7 -8 -12 0 0 0 0 0 0 0 0 0 0
0 0 0 0 0 0 0 0 0 0 0 0 0 0 0 0 0 0 0 0 0 0 0 0 0 0 0 0 0 0 0 -2 0 0 0 0 -1 0 0 0 0 -5 -18 -14 0 0 0 0 0 0 0 0 0 0
0 0 0 0 0 0 0 0 0 0 0 0 0 0 0 0 0 0 0 0 0 0 0 0 0 0 0 0 0 0 0 0 0 0 0 0 -1 0 -4 0 0 0 0 0 0 0 0 0 0 0 0 0 0 0
0 0 0 0 0 0 0 0 0 0 0 0 0 0 0 0 0 0 0 0 -1 0 0 0 0 0 0 0 0 -1 -3 -10 -10 -3 -1 -1 0 -1 -6 0 -1 0 0 0 0 0 0 0 0 0 0 0 0 0
0 0 0 0 0 0 0 0 0 0 0 0 0 0 0 0 0 0 0 0 0 0 0 -2 -1 0 0 0 0 0 0 0 0 0 -1 0 0 0 0 0 0 0 0 0 0 0 0 0 0 0 0 0 0 0
0 0 0 0 0 0 0 0 -1 0 0 -2 -2 0 0 0 0 0 0 0 0 -4 -11 -3 0 0 0 0 0 0 -1 0 0 -1 0 0 0 -1 -1 -2 0 -1 -1 -2 -1 -1 -1 0 0 0 0 0 0 0
0 0 0 0 0 0 0 0 0 0 0 0 0 0 0 -2 -2 0 0 -1 -3 -14 0 -1 0 0 0 0 0 0 0 -1 0 0 -1 0 0 -1 0 -2 0 -4 -2 -2 0 0 -1 0 0 0 0 0 0 0
0 0 0 0 0 0 0 0 0 0 0 0 0 0 0 0 0 0 -1 -1 0 0 0 0 0 0 0 0 0 0 0 0 -3 -4 0 0 -1 -1 0 -1 -2 -2 -2 0 0 0 0 0 0 0 0 0 0 0
0 0 0 0 0 0 0 0 0 0 0 0 0 0 0 0 0 0 0 0 0 0 0 0 -1 0 0 0 0 0 0 0 0 0 0 0 0 0 0 0 -2 -1 0 0 0 0 0 0 0 0 0 0 0 0
Wind_Speed
13 14 15 17 20 20 21 22 22 22 21 21 24 22 19 20 21 13 3 2 1 5 6 9 8 4 1 5 6 8 5 2 0 4 3 2 1 4 3 6 9 8 5 3 5 5 7 10 5 3 4 1 2 2
13 15 15 15 15 17 22 23 24 21 24 23 22 21 21 20 20 16 4 7 8 7 5 4 11 12 8 8 4 6 1 5 4 3 2 4 1 2 4 2 8 6 7 5 6 3 5 3 8 7 5 5 1 2
14 14 14 12 14 16 16 18 21 21 23 22 23 23 23 22 19 14 7 7 6 5 5 5 7 10 11 8 4 3 2 2 4 2 4 3 3 2 3 5 5 5 3 2 3 4 7 6 2 6 2 4 3 1
14 14 15 13 14 15 15 15 18 22 22 21 21 22 23 17 14 10 6 4 6 7 6 4 1 1 5 3 7 5 7 3 4 6 5 3 3 3 1 2 3 3 7 4 6 9 6 6 2 3 7 1 1 3
12 12 11 16 14 13 14 18 19 21 21 22 19 20 17 18 16 13 8 6 5 6 5 5 5 8 1 4 6 6 6 8 4 4 4 2 1 2 1 2 2 2 4 3 4 6 4 6 5 5 2 3 2 4
11 12 11 15 17 15 15 20 21 23 21 20 19 17 13 21 17 7 5 6 4 4 7 4 2 5 7 7 8 8 5 4 5 4 1 3 2 1 2 3 6 8 5 5 3 6 5 4 3 2 1 4 4 3
9 12 15 13 21 17 19 24 24 22 22 19 17 18 15 17 9 6 5 5 3 4 7 5 4 3 3 3 4 4 6 4 4 2 1 3 3 1 0 3 3 1 6 5 6 4 1 1 2 3 4 6 7 7
13 15 20 16 18 21 20 23 25 22 27 25 29 27 27 26 14 8 6 5 2 7 5 5 4 5 3 5 2 2 4 3 5 2 1 2 3 1 4 10 9 4 6 1 2 2 3 1 1 5 7 8 8 9
14 17 21 21 17 21 22 20 20 17 20 20 16 14 7 7 4 3 8 7 8 6 5 3 7 5 3 2 3 4 3 3 1 1 3 1 3 4 7 4 5 9 5 2 1 3 5 3 4 6 8 7 8 10
16 18 21 23 23 23 23 20 17 12 8 6 8 8 4 1 3 4 10 7 8 5 4 4 6 5 6 4 3 3 1 3 2 3 4 2 4 9 6 4 5 4 3 6 4 2 5 5 5 6 8 7 12 10
17 17 19 20 21 22 22 19 14 9 2 3 3 3 7 6 0 4 4 4 4 3 2 5 8 9 5 4 3 3 2 3 3 4 4 5 3 4 11 8 7 6 3 5 4 3 3 5 6 6 6 10 10 9
16 16 15 14 12 10 8 6 7 5 1 7 13 6 4 3 4 5 4 4 4 5 5 8 9 6 3 4 4 1 2 1 2 4 2 2 4 10 8 7 6 5 2 4 6 2 6 1 5 6 10 11 9 10
17 17 17 15 14 13 12 14 13 8 9 4 6 6 3 2 5 6 6 5 6 5 7 8 7 3 2 4 3 3 3 2 5 2 1 4 9 9 8 6 5 6 6 8 5 5 7 8 10 12 11 9 10 9
19 20 18 15 14 11 10 8 6 5 2 4 5 6 4 3 4 4 9 8 7 9 11 8 5 3 3 3 3 2 3 3 3 3 2 5 7 7 7 6 5 5 8 7 6 6 6 7 9 9 9 8 8 8
17 16 14 18 11 9 6 3 5 3 3 5 5 5 5 5 5 7 10 11 11 10 9 7 4 4 4 3 1 4 3 4 5 3 3 4 8 7 5 4 5 5 5 6 7 7 7 7 7 7 7 8 8 8
7 10 11 13 10 9 5 1 4 4 4 5 7 11 8 9 7 7 9 9 8 8 6 3 4 4 4 5 4 4 6 2 4 3 4 6 6 5 3 4 4 6 7 6 7 8 8 7 8 9 9 8 8 9
11 6 13 11 9 4 13 4 4 6 6 5 6 8 10 8 6 5 6 6 4 4 1 4 4 3 3 3 4 4 4 5 4 4 3 4 5 4 3 4 2 3 5 5 6 7 7 8 9 10 10 10 10 9
7 8 12 13 6 6 5 7 5 7 9 7 6 8 8 7 6 4 3 5 3 3 4 3 2 3 3 2 5 5 5 5 5 4 4 4 5 5 4 4 3 2 2 3 5 5 6 7 8 6 8 11 10 10
11 11 16 14 8 5 6 6 5 6 6 7 7 5 6 7 7 3 5 5 6 5 3 3 3 2 5 6 7 6 4 4 4 4 4 5 4 4 3 4 3 3 1 3 3 4 4 6 5 5 6 8 7 7
14 17 13 15 7 5 6 5 4 5 4 3 8 7 7 6 5 4 6 5 6 3 4 2 4 6 6 5 4 6 5 5 5 4 4 5 5 6 5 4 2 2 3 1 2 3 3 4 4 4 6 7 7 8
9 10 11 7 5 7 5 4 6 4 4 3 6 7 4 5 5 5 5 4 3 2 2 2 4 7 6 5 3 3 2 1 2 2 2 1 3 2 1 2 3 3 3 3 3 3 4 5 5 5 4 5 4 5
3 6 4 8 6 7 5 5 4 2 3 5 4 4 4 3 2 2 3 3 2 2 2 2 4 3 3 3 1 1 3 4 4 3 4 2 4 3 3 3 3 4 4 3 3 5 5 5 5 4 4 5 5 4
3 6 5 5 7 6 3 4 4 3 3 5 4 4 3 3 3 3 2 2 3 4 4 5 6 5 3 3 3 3 4 4 4 4 4 4 5 5 5 6 6 5 5 5 4 5 5 4 3 2 6 7 6 4
9 6 5 4 5 4 3 2 2 4 3 3 3 2 4 3 2 1 2 3 6 5 4 4 2 1 1 3 1 2 4 4 5 5 6 7 6 6 7 7 8 7 5 5 4 3 3 3 3 3 6 8 7 6
6 6 3 6 2 4 3 3 2 4 2 5 3 2 3 2 2 2 3 4 6 4 5 3 3 3 2 1 4 3 5 4 3 5 5 6 6 7 7 7 8 7 5 5 4 4 4 3 5 5 6 7 9 10
6 4 2 3 3 4 4 4 4 5 5 3 3 4 2 2 3 3 3 5 7 6 4 2 2 4 6 6 5 5 5 3 4 4 4 4 3 5 7 9 7 5 9 2 5 6 6 6 7 9 8 10 11 10
4 3 1 2 3 5 4 3 5 5 3 3 4 4 3 4 3 2 4 6 7 6 5 3 3 4 5 5 5 5 5 6 6 6 6 5 5 5 4 4 7 6 7 8 3 3 4 6 7 8 8 7 9 11
2 3 4 3 4 3 4 3 3 3 3 3 6 3 4 4 3 3 4 6 6 5 4 4 3 3 4 3 3 3 4 5 5 5 4 5 4 4 3 3 3 4 5 5 5 2 2 3 5 6 7 9 8 8
2 6 6 5 3 3 2 2 2 2 2 4 3 3 3 3 4 5 5 5 4 3 3 3 4 2 2 3 3 3 4 4 6 6 5 4 2 2 5 5 5 5 4 5 5 3 4 3 4 5 7 7 5 4
5 4 4 3 2 3 2 3 7 5 5 5 3 3 4 3 2 2 3 3 2 2 1 1 2 2 4 4 4 4 3 3 3 3 4 3 3 3 4 4 3 3 4 4 4 4 4 2 2 1 2 3 3 4
6 3 3 3 2 6 6 3 2 2 3 3 5 1 1 4 3 2 2 1 1 2 1 3 3 3 4 5 5 5 4 2 2 4 2 2 3 2 3 4 2 3 4 4 4 4 4 4 3 4 4 5 5 5
4 3 3 3 4 4 2 1 2 1 1 2 3 3 2 2 3 2 2 1 2 1 1 0 2 1 3 3 4 4 4 3 3 2 3 3 3 3 4 4 2 3 4 4 4 4 5 5 5 5 5 6 6 6
3 4 3 3 4 4 3 2 2 2 2 2 1 2 2 2 2 3 3 3 2 2 1 1 1 1 2 2 3 3 2 1 3 2 3 4 4 5 5 3 3 4 5 4 4 5 5 6 5 6 7 7 7 7
Wind_Direction
159 166 177 187 189 191 192 200 195 188 192 184 179 179 175 196 198 197 117 275 137 96 43 20 8 52 136 128 127 142 112 302 211 174 149 74 238 208 234 232 169 178 184 185 222 252 259 120 114 269 77 353 44 13
135 154 168 172 181 192 196 199 202 191 195 184 176 173 176 194 193 200 128 89 75 77 95 106 70 41 31 11 113 176 307 143 170 125 164 117 143 263 190 250 179 210 213 196 212 219 121 150 60 73 24 344 78 30
129 127 132 139 166 169 174 189 194 172 172 167 164 172 180 200 190 206 127 129 85 97 57 28 10 3 11 9 354 124 72 42 61 258 80 74 148 225 188 240 250 202 271 256 318 309 2 154 165 135 97 326 328 146
98 122 130 124 134 151 159 164 165 160 158 164 161 166 173 193 197 167 128 126 103 109 100 52 342 33 331 344 42 350 100 88 101 57 71 111 149 318 281 323 297 45 129 225 260 270 267 211 211 325 140 84 29 65
94 109 131 147 125 118 139 166 157 150 148 153 155 161 163 174 132 101 86 53 58 106 124 126 88 25 353 71 90 92 93 104 88 71 79 146 131 113 47 12 297 216 217 232 262 70 4 53 35 342 147 153 173 157
51 120 107 141 133 122 123 144 140 141 130 135 152 156 155 143 143 112 73 45 7 93 98 101 147 68 69 61 65 65 61 54 77 116 101 61 51 269 154 200 210 248 285 304 106 81 55 49 353 39 157 156 157 154
65 95 108 104 138 121 109 125 120 120 116 119 118 94 81 67 50 65 105 93 7 94 83 120 118 63 40 98 118 89 57 44 93 70 48 154 132 128 265 214 236 343 73 53 86 95 10 146 15 96 111 114 101 98
78 83 117 97 114 122 106 111 113 118 126 115 106 103 98 103 121 69 34 333 358 84 83 97 95 128 225 155 98 319 85 68 5 99 305 177 118 153 234 240 264 161 102 103 150 113 97 225 91 120 121 115 136 105
73 80 102 110 98 103 103 101 109 122 119 113 104 122 87 45 80 186 263 32 48 86 106 157 152 142 126 55 87 19 74 76 35 172 191 175 151 216 237 255 47 59 72 45 96 111 109 110 151 142 141 142 115 98
77 83 89 101 116 115 109 107 106 104 113 76 50 47 38 331 252 231 16 33 23 356 3 67 114 133 143 127 96 97 324 140 149 189 91 199 244 244 135 109 103 96 70 58 75 169 134 174 175 170 151 155 128 131
80 74 78 86 98 108 119 122 137 163 207 80 91 95 117 59 213 70 93 115 152 95 115 111 129 129 135 113 116 93 175 171 199 136 213 187 233 138 82 77 62 53 42 119 140 172 196 198 170 169 116 103 124 126
84 79 77 79 87 96 102 142 181 177 357 116 111 129 151 79 78 91 104 133 153 134 145 131 120 96 79 102 92 256 113 261 152 134 87 242 114 90 79 58 53 38 87 140 73 41 349 269 170 119 101 112 115 120
86 81 76 80 84 77 68 56 63 81 128 106 59 72 85 76 78 142 160 126 133 121 132 122 110 119 106 82 103 144 140 153 119 59 200 44 77 70 64 71 50 75 102 87 78 66 62 70 78 109 117 117 116 120
83 76 70 67 70 69 59 53 22 329 326 68 67 58 69 58 62 13 95 97 108 121 126 122 123 116 164 101 161 114 71 114 139 160 143 72 66 77 80 101 97 103 89 113 117 109 96 93 97 97 111 113 124 144
77 71 67 38 46 56 58 29 310 235 60 68 48 72 64 90 62 66 85 98 101 109 118 123 98 90 81 102 131 99 144 187 211 94 83 44 58 62 66 94 129 130 136 135 137 127 121 122 118 114 123 145 148 152
97 70 26 3 9 24 355 238 39 43 61 49 55 81 92 82 60 76 100 108 128 143 159 103 106 127 120 132 139 191 176 146 72 66 40 43 54 58 91 129 145 171 156 162 136 144 152 149 147 148 155 143 155 164
51 47 344 341 339 30 21 59 50 48 55 59 69 119 98 90 87 75 72 49 40 75 69 122 122 92 101 156 182 43 50 85 121 104 96 72 79 94 105 93 156 190 156 143 140 149 148 174 141 152 162 150 170 168
76 44 9 3 355 52 37 28 53 43 61 79 70 69 73 84 88 44 52 38 46 92 69 66 138 124 115 163 73 115 119 127 105 103 98 105 118 120 132 135 157 151 134 107 129 145 161 179 174 178 168 159 165 164
59 39 18 19 34 72 58 36 18 69 59 71 84 68 78 89 102 118 68 42 39 57 86 42 68 58 69 82 97 90 106 128 135 124 112 95 87 99 132 119 142 152 66 137 195 187 186 202 203 183 165 167 179 171
70 32 14 24 38 65 62 41 348 84 94 101 131 127 108 96 104 105 98 80 65 47 44 53 55 51 64 85 106 129 151 160 158 169 158 156 154 169 161 167 157 158 158 201 253 274 218 197 214 211 176 179 195 179
47 359 14 29 45 52 89 64 38 78 126 100 106 96 93 127 127 123 107 86 55 77 87 71 74 105 86 78 71 97 114 221 65 55 92 1 50 348 353 160 162 170 193 189 248 249 225 253 202 216 182 165 201 185
39 334 50 23 60 50 59 30 93 113 109 134 126 118 116 107 115 118 77 88 88 75 63 55 57 44 105 112 116 321 20 18 148 208 261 261 268 264 262 256 214 214 225 219 202 243 245 227 253 196 150 148 173 200
332 22 48 55 62 53 53 295 91 88 111 134 131 108 135 133 108 97 109 137 102 75 65 74 65 49 38 19 357 353 356 320 296 297 303 297 291 283 264 266 262 237 200 208 221 233 229 235 240 179 142 156 169 201
26 49 41 52 59 83 42 18 97 103 113 135 112 125 117 105 118 146 123 115 95 116 123 121 36 295 205 206 151 72 50 25 9 356 354 333 313 306 307 298 287 268 217 188 186 181 211 211 209 171 156 166 168 206
65 18 35 63 73 111 105 60 66 74 143 100 82 98 90 108 137 134 164 127 128 117 85 86 79 56 337 51 122 82 61 48 13 349 340 312 325 313 299 288 271 267 249 178 161 164 192 184 196 195 184 183 187 197
70 18 44 108 155 123 134 125 145 156 109 79 126 103 135 129 131 171 174 116 116 114 105 81 59 94 78 52 50 41 20 11 309 286 337 348 303 337 339 332 325 318 2 220 162 185 192 196 200 204 203 204 201 203
93 82 94 324 121 99 79 93 120 91 112 153 135 133 140 150 149 139 110 115 122 117 119 106 74 68 70 66 38 19 359 343 337 335 321 313 19 29 3 358 351 352 341 345 109 166 206 207 214 216 219 213 210 209
95 114 129 103 84 97 95 93 122 144 170 148 131 142 141 147 95 103 115 96 103 124 142 143 143 97 70 54 4 352 346 336 317 309 350 76 84 75 38 20 9 10 2 4 359 327 229 228 221 225 222 228 223 213
109 117 85 84 69 91 133 130 134 109 79 123 126 128 150 75 66 100 109 113 123 167 195 191 101 55 340 329 321 319 306 310 315 316 321 314 322 64 18 349 351 348 342 340 341 352 341 304 264 240 231 229 227 213
140 141 97 112 113 109 60 50 71 45 16 26 49 92 102 106 125 89 109 138 177 128 153 233 310 266 271 280 278 258 248 281 288 276 278 297 313 334 322 331 327 333 330 327 330 328 316 320 307 288 246 234 221 215
135 110 110 118 115 67 73 63 67 98 41 32 32 36 36 34 11 320 248 268 330 98 183 259 257 244 253 271 274 271 273 211 258 263 289 288 291 330 337 325 320 345 328 322 321 319 323 328 332 317 289 265 247 238
162 135 119 119 115 98 106 153 109 122 135 213 201 198 175 191 243 188 71 78 124 191 177 89 273 58 42 359 323 296 301 307 9 357 312 326 320 308 306 319 332 329 323 324 324 329 334 337 330 327 331 328 329 306
97 108 86 111 137 155 123 222 146 134 189 205 165 26 336 293 273 97 114 58 83 108 94 29 332 306 305 315 333 338 287 108 60 32 359 359 9 348 314 325 347 330 313 312 322 331 327 324 325 324 322 319 316 312